Regional Weather Roundup
Issued by NWS Wakefield, VA

Home | Current Version | Previous Version | Graphics & Text | Print | Product List | Glossary On
Versions: 1 2 3 4 5 6 7 8 9 10 11 12 13 14 15 16 17 18 19 20 21 22 23 24 25 26 27 28 29 30 31 32 33 34 35 36 37 38 39 40 41 42 43 44 45 46 47 48 49 50
000
ASUS41 KAKQ 281315
RWRAKQ

REGIONAL WEATHER ROUNDUP
NATIONAL WEATHER SERVICE WAKEFIELD VA
900 AM EDT SUN MAY 28 2017

Note: "fair" indicates few or no clouds below 12,000 feet with no
significant weather and/or obstructions to visibility. * = Denotes
station may not report precipitation (e.g., rain,snow,etc.),
thunder or fog.

VAZ042-051-052>054-056-281400-
NORTHERN VIRGINIA

CITY           SKY/WX    TMP DP  RH WIND       PRES   REMARKS
WASH NATIONAL  PTSUNNY   68  60  75 CALM      29.89S
DULLES         PTSUNNY   66  60  81 E3        29.89R
FORT BELVOIR   SUNNY     68  59  73 SE6       29.88S
QUANTICO       MOSUNNY   67  63  87 CALM      29.89R
FREDERICKSBRG* PTSUNNY   66  65  96 CALM      29.87F
STAFFORD*      PTSUNNY   67  64  89 E5        29.92S
WARRENTON      CLOUDY    67  60  78 SE5       29.88R
CULPEPER*      CLOUDY    65  63  92 CALM      29.89S
MANASSAS*      SUNNY     67  61  81 E6        29.89R
LEESBURG*      CLOUDY    64  63  94 CALM      29.90S
WINCHESTER     CLOUDY    61  59  94 CALM      29.88S FOG
FRONT ROYAL*   CLOUDY    63  63 100 CALM      29.87R
LURAY*         CLOUDY    63  63 100 CALM      29.86F FOG
$$

VAZ048-049-060>072-079>083-281400-
CENTRAL AND SOUTH CENTRAL VIRGINIA

CITY           SKY/WX    TMP DP  RH WIND       PRES   REMARKS
RICHMOND       CLOUDY    69  67  93 NE6       29.85F FOG
CHESTERFIELD*  NOT AVBL
PETERSBURG*    LGT RAIN  66  65  98 CALM      29.86R
HANOVER        CLOUDY    65  62  90 NE3       29.86F FOG
TAPPAHANNOCK*  MOSUNNY   69  64  85 NE3       29.88S
QUINTON*       CLOUDY    67  67 100 NE6       29.84F
CHARLOTTSVILLE CLOUDY    65  63  93 NE6       29.87S FOG
GORDONSVILLE*  CLOUDY    64  63  95 E3        29.86S
ORANGE*        CLOUDY    63  61  94 E5        29.88S
LOUISA*        CLOUDY    66  64  94 NE3       29.86F FOG
BUMPASS*       CLOUDY    63  63 100 S5        29.87F
FARMVILLE*     CLOUDY    65  62  91 N5        29.83F FOG
CREWE*         CLOUDY    65  61  86 NE5       29.83F
FORT PICKETT*  CLOUDY   N/A N/A N/A NW5       29.84F
CHASE CITY*    CLOUDY    65  63  94 NE3       29.84R
CLARKSVILLE*   CLOUDY    66  66 100 CALM      29.83R
SOUTH HILL*    CLOUDY    66  65  96 CALM      29.89S
LAWRENCEVILLE* CLOUDY    66  63  89 CALM      29.84R
EMPORIA*       CLOUDY    64  63  94 NE6       29.85R
$$

VAZ088>098-281400-
SOUTHEAST VIRGINIA

CITY           SKY/WX    TMP DP  RH WIND       PRES   REMARKS
NORFOLK        MOSUNNY   73  66  78 NE5       29.85R
VIRGINIA BEACH PTSUNNY   72  64  76 E3        29.85R
NORFOLK NAVAL  PTSUNNY   73  65  75 NE6       29.87R
WEST POINT*    MOSUNNY   69  65  86 E6        29.88S
SALUDA*        PTSUNNY   69  65  88 E7        29.87S
NEWPORT NEWS   PTSUNNY   70  66  87 E7        29.86R
LANGLEY AFB    MOSUNNY   70  66  89 NE8       29.85S
FORT EUSTIS    PTSUNNY   72  66  81 CALM      29.84R
WILLIAMSBURG*  PTSUNNY   72  68  88 CALM      29.87R
HR EXEC AP*    FAIR      70  66  88 CALM      29.84R
FRANKLIN*      LGT RAIN  68  65  91 E8        29.83F
US460-WAKEFLD  CLOUDY    68  68 100 CALM      29.85S FOG
$$

VAZ020-022-025-037-045-281400-
WEST CENTRAL AND SOUTHWEST VIRGINIA

CITY           SKY/WX    TMP DP  RH WIND       PRES   REMARKS
STAUNTON*      CLOUDY    65  62  93 CALM      29.89F
WAYNESBORO*    CLOUDY    65  64  96 SE3       29.88S
HOT SPRINGS VA CLOUDY    63  61  94 CALM      29.95S FOG
LYNCHBURG      CLOUDY    65  61  87 NE7       29.86F
DANVILLE       CLOUDY    69  66  90 CALM      29.86R
SOUTH BOSTON*  CLOUDY    67  65  96 NE3       29.84R
MARTINSVILLE   PTSUNNY   72  64  78 NE3       29.89R
ROANOKE        CLOUDY    69  65  86 CALM      29.88R
BLACKSBURG     CLOUDY    65  60  85 W3        29.94R
DUBLIN*        CLOUDY    66  58  74 SW6       29.94R
MARION*        CLOUDY    63  60  90 CALM      29.98R
HILLSVILLE*    CLOUDY    62  56  81 W7        29.95R
RICHLANDS*     CLOUDY    63  61  93 SW3       29.94F
WISE*          PTSUNNY   63  63 100 CALM      29.96R
ABINGDON*      CLOUDY    64  63  98 W6        29.95S
$$

MDZ021>025-VAZ099-100-281400-
SOUTHERN MARYLAND AND THE DELMARVA PENINSULA

CITY           SKY/WX    TMP DP  RH WIND       PRES   REMARKS
PATUXENT RIVER MOSUNNY   68  63  84 E8        29.88R
BAY BRIDGE APT SUNNY     68  59  73 E7        29.89S
LEONARDTOWN    MOSUNNY   66  59  77 E6        29.89S
DOVER          SUNNY     67  67 100 E9        29.90R
GEORGETOWN     SUNNY     71  56  58 MISG      29.91R
EASTON         SUNNY     68  57  68 E7        29.93R
CAMBRIDGE      SUNNY     68  59  73 E10       29.89S
SALISBURY      SUNNY     70  58  65 E10       29.89R
OCEAN CITY     SUNNY     65  60  84 E8        29.91R
WALLOPS ISLAND MOSUNNY   69  61  75 E8        29.90R
ACCOMACK*      PTSUNNY   69  18  14 E7        29.89R
$$

NCZ012>017-030>032-281400-
NORTH CENTRAL AND EASTERN NORTH CAROLINA

CITY           SKY/WX    TMP DP  RH WIND       PRES   REMARKS
ROANOKE RAPIDS CLOUDY    70  68  94 CALM      29.83S
RALEIGH        PTSUNNY   74  68  81 S6        29.86R
ELIZABETH CITY MOSUNNY   75  69  81 SE7       29.85R
AHOSKIE*       NOT AVBL
EDENTON*       MOSUNNY   77  71  81 CALM      29.85R
CURRITUCK*     MOSUNNY   75  66  74 NE5       29.86R
KILL DEVIL HLS MOSUNNY   74  64  69 CALM      29.85R
MANTEO         MOSUNNY   75  66  75 SE6       29.86R
CAPE HATTERAS  SUNNY     78  71  79 SW7       29.86R
TARBORO*       NOT AVBL
GOLDSBORO      CLOUDY    76  73  88 W5        29.84R
WASHINGTON     MOSUNNY   73  69  87 CALM      29.85R
GREENVILLE     CLOUDY    73  72  94 S3        29.87S
NEW BERN       CLOUDY    77  71  82 SW5       29.87R
WILMINGTON     MOSUNNY   79  69  71 SW8       29.87R
$$

VAZ048-281400-
ELSEWHERE

CITY           SKY/WX    TMP DP  RH WIND       PRES   REMARKS
HARRISBURG PA  CLOUDY    61  61 100 E3        29.89S FOG
BALTIMORE      MOSUNNY   67  60  78 E7        29.88F
ANNAPOLIS      SUNNY     69  60  73 E7        29.89R
ANDREWS AFB    SUNNY     67  58  72 E8        29.89R
PHILADELPHIA   MOSUNNY   69  61  75 E6        29.91F
HENDERSON NC   MOSUNNY   66  64  94 SW8       29.85R
GREENSBORO     PTSUNNY   69  66  90 W10       29.87R
ROCKY MOUNT    PTSUNNY   73  70  90 S5        29.84R
$$

VAZ100-281400-
MARINE

STATION/POSITION TIME  TEMP    WIND        PRES    WAVE   SWELL
                       AIR SEA DIR/SP/G            HT/PER HT/PER
                 (UTC) (F)     (DEG/KT/KT) (MB)    (FT/S) (FT/S)
CAPE MAY NJ      1248   65 62   80/  9/ 13 1012.6R
LEWES DE         1248   65 64  120/  9/ 11 1012.7R
15NM E FENWICK I 1250   61 60   60/  8/ 10 1013.0R   2/ 8   2/ 8
WACHAPREAGUE VA  1248   65 70   60/  8/  9 1011.9R
THOMAS POINT MD  1300   65 65  100/  6/  7   N/A
GOOSES REEF MD   1300   67 63  100/  8/ 10 1013.0    1/ 2
COVE POINT MD    1248   66     170/  7/  8 1012.7R
SOLOMONS ISLAND  1248   67 68  120/  7/  9   N/A
BISHOPS HEAD MD  1248   68 69  110/ 10/ 11 1012.3R
PINEY POINT MD   1248          120/ 11/ 12   N/A
POTOMAC MD       1300   66 68  120/ 10/ 12 1010.7    1/ 3
CAMBRIDGE MD     1248   68 70                N/A
LEWISETTA VA     1248   67 70  120/ 11/ 13 1011.3R
RAPPAHANNOCK LGT 1248          100/  9/ 10 1012.0R
STINGRAY PT      1250   68     140/  8/ 10 1011.6R
YORK RVR RNG VA  1248   67     100/  6/  8 1010.6R
YORKTOWN VA      1248   67 70   90/  8/ 10 1010.9R
JAMESTOWN VA     1300   68 73   80/  6/  8   N/A     0
DOMINION TERM VA 1248   69      20/  1/  6 1010.9R
KIPTOPEKE VA     1248      67  100/  9/ 12   N/A
CHES BAY BRIDGE  1248   66 67   80/  5/  6 1011.0R
CAPE HENRY VA    1248   67      50/  5/  6   N/A
WILLOUBY STN VA  1248   67      60/  8/  8 1010.8R
S CRANEY ISL VA  1248   70      40/  3/  4 1010.6R
CAPE HENRY BUOY  1242      66                N/A     2/ 8
1ST LANDING BUOY 1300   67 68              1011.4    1/ 3
CAPE CHARLES BUO 1251      64                N/A     2/ 8
64NM E OF VA BCH 1250   66 64   90/  2/  4 1011.7R   3/ 5   2/ 5
DUCK PIER NC     1248   71 67  140/  6/  6 1010.6R
44100 DUCK FRF   1235      66                N/A     2/ 8
44056 DUCK FRF   1230      68                N/A     2/ 7
OREGON INLET NC  1248           60/  5/  6   N/A
HATTERAS NC      1248   76 73  210/  6/  9 1010.8R
DIAMOND SHLS NC  1250   76 77  240/ 14/ 16 1011.2R   3/ 6   2/ 6
CAPE LOOKOUT NC  1200   76     220/  8/ 10 1010.6R
$$



USA.gov is the U.S. government's official web portal to all federal, state and local government web resources and services.